Lapse_Rate
6.0 5.6 5.5 5.2 5.5 6.5 7.6 8.0 8.7 9.1 9.3 9.2 9.5 9.3 9.0 8.7 8.6 8.3 7.6 7.6 7.6 7.4 6.7 5.0 6.4 6.8 7.0 7.1 7.1 7.1 7.0 6.8 6.9 6.8 6.7 6.6 6.5 6.3 6.1 5.9 5.9 5.8 5.8 5.6 5.5 5.5 5.6 5.7 5.8
5.9 5.7 5.6 5.6 6.5 7.4 8.1 8.8 9.4 9.6 9.3 9.1 9.0 9.0 8.8 8.9 8.3 8.1 7.5 7.5 7.7 7.6 7.2 6.7 5.9 6.7 6.9 6.9 7.0 7.0 7.0 6.8 6.7 6.7 6.7 6.6 6.4 6.2 6.0 5.9 5.9 5.8 5.7 5.7 5.6 5.8 5.8 5.7 5.8
6.0 5.6 5.6 6.6 7.6 7.8 8.5 9.3 9.3 9.3 9.4 9.2 8.8 8.8 8.7 8.6 8.5 8.4 8.2 7.7 7.8 7.7 7.6 7.5 7.2 6.9 6.0 6.7 6.6 6.4 6.3 6.4 6.7 6.7 6.7 6.6 6.5 6.1 5.9 5.9 5.9 5.7 5.8 5.9 5.8 5.8 5.8 5.7 5.7
5.8 5.7 6.3 7.5 8.4 8.9 9.1 9.5 9.6 9.0 9.1 9.2 8.7 8.8 8.5 8.1 7.9 7.7 7.9 7.9 7.8 7.6 7.1 6.6 7.0 7.1 5.7 5.9 6.3 6.3 6.2 6.4 6.8 6.9 7.0 6.7 6.4 6.1 5.9 5.9 6.0 5.7 5.8 5.8 5.8 5.8 5.8 5.7 5.8
6.1 6.1 6.5 7.2 8.3 9.3 9.4 9.4 9.4 9.1 9.2 9.0 8.5 8.4 7.8 7.4 7.3 7.6 7.4 7.2 7.7 7.3 7.4 7.0 7.3 6.9 5.4 5.7 6.1 6.0 6.3 6.3 6.7 6.8 6.7 6.6 6.4 6.1 6.0 5.8 5.8 5.8 5.9 5.9 5.9 5.8 5.8 5.9 6.0
6.1 6.1 6.8 7.9 8.9 9.2 9.3 9.2 9.1 9.2 9.1 9.1 8.2 7.5 7.6 7.3 7.2 7.4 7.0 6.6 7.6 7.4 7.6 7.1 6.6 6.3 6.1 5.7 5.8 5.9 5.6 6.2 6.3 6.4 6.4 6.3 6.2 6.2 5.9 5.8 5.6 5.9 6.0 5.9 5.9 5.9 5.8 5.9 6.0
6.1 6.7 7.3 8.3 9.1 9.2 9.3 9.0 8.6 8.4 8.0 8.5 7.8 7.5 7.5 7.0 7.1 7.4 6.5 6.7 7.6 7.4 7.2 7.1 6.6 6.3 6.0 5.8 5.9 5.0 5.6 5.8 5.9 6.0 6.1 6.0 6.0 6.0 5.7 5.6 5.8 5.7 5.8 5.9 5.8 5.8 5.7 6.1 6.0
6.3 6.8 7.7 8.8 9.0 9.1 8.8 8.6 8.4 8.0 8.2 7.7 8.0 7.8 7.5 7.6 7.5 7.0 6.8 7.4 7.6 7.6 7.0 6.8 6.7 6.4 6.1 6.2 6.0 5.3 5.2 5.6 5.6 5.9 5.8 5.8 5.7 5.7 5.5 5.5 5.7 5.9 5.8 5.7 5.8 5.8 6.0 6.2 6.3
6.7 7.7 7.9 8.8 9.1 8.7 8.6 8.2 8.2 8.1 7.8 8.1 7.9 7.6 7.5 7.1 6.8 7.2 7.5 7.3 7.5 7.3 7.3 7.1 6.2 6.6 6.4 5.5 5.8 5.4 5.0 5.3 5.2 5.3 5.6 5.5 5.4 5.3 5.1 4.9 5.5 5.7 5.6 5.8 5.8 6.2 6.3 6.4 6.1
6.7 7.9 8.2 9.0 9.2 8.8 8.7 8.8 8.4 8.1 7.9 7.8 7.5 7.6 7.0 7.0 7.0 6.7 7.0 7.3 7.5 7.6 7.1 7.0 6.7 6.6 6.3 6.3 5.8 6.1 5.0 5.0 5.2 5.4 5.4 5.0 4.9 4.9 4.7 4.7 5.2 5.5 5.6 5.7 6.2 6.4 6.4 6.2 6.2
7.1 8.1 8.3 9.2 9.3 8.2 8.5 8.7 8.4 8.1 7.6 7.4 7.6 7.3 7.0 7.1 6.7 6.6 6.7 7.0 7.3 7.3 7.0 6.7 6.3 6.3 6.2 6.3 5.9 6.1 5.3 5.0 5.0 5.0 4.9 5.1 4.4 4.0 4.3 4.6 5.1 5.5 5.7 6.3 6.5 6.4 6.2 6.0 6.0
7.0 8.3 8.6 9.0 9.5 8.4 8.6 8.0 8.1 8.1 6.3 6.8 6.8 7.3 7.0 6.9 6.8 7.1 7.4 7.4 7.2 6.8 7.0 6.9 6.0 6.1 6.0 5.9 5.9 5.8 5.5 4.8 4.6 5.0 4.9 4.2 4.0 3.9 4.1 4.8 5.1 5.4 6.1 6.5 6.9 6.6 6.3 6.2 6.1
7.3 8.4 8.8 8.8 8.8 8.4 8.3 8.0 7.7 7.7 7.5 7.3 6.8 7.1 7.0 6.4 6.9 7.2 7.4 7.7 6.8 6.1 5.9 6.0 6.0 6.0 5.6 5.8 5.8 5.6 5.4 4.7 4.7 4.5 4.3 3.9 4.2 4.4 4.6 5.1 5.4 5.8 6.1 6.5 6.6 6.2 6.3 6.1 5.8
7.2 7.6 7.9 8.3 8.5 8.6 8.4 8.3 7.8 7.7 7.4 7.1 6.8 7.0 7.4 7.0 6.9 7.3 7.6 7.7 6.1 5.6 5.6 5.6 5.6 5.3 5.7 5.5 5.7 5.2 5.1 5.0 4.5 4.0 3.9 4.0 4.5 4.4 5.2 5.7 5.8 6.0 6.5 6.5 6.3 6.2 6.2 5.8 5.8
7.0 7.3 7.9 8.1 8.4 8.6 8.6 8.2 8.0 7.7 7.3 7.0 6.9 7.5 7.7 7.5 7.1 7.2 7.5 7.8 6.1 5.5 5.4 5.3 5.1 5.3 5.7 5.3 5.1 5.1 4.8 4.8 4.7 4.3 4.0 4.2 4.5 4.8 5.6 5.7 5.8 6.4 6.5 6.6 6.4 6.0 6.0 5.8 5.7
6.9 7.6 7.8 8.5 8.7 8.8 8.7 8.5 7.8 7.9 7.4 7.3 6.7 7.6 8.1 7.7 7.4 7.5 7.8 7.7 7.4 6.5 5.4 5.0 5.1 5.2 5.2 4.8 5.0 4.6 4.6 4.4 4.3 4.2 4.2 4.5 5.2 5.5 5.8 5.7 6.5 6.6 6.3 6.3 6.2 6.0 5.8 6.0 6.1
7.2 7.2 7.9 8.5 9.1 9.1 8.5 8.3 8.1 7.7 7.2 7.3 6.7 7.4 7.8 7.4 7.6 7.4 7.5 7.4 7.4 7.1 7.1 6.0 4.7 4.8 5.1 4.9 4.8 4.7 4.8 4.8 4.7 4.2 4.4 5.5 5.6 5.8 5.9 6.2 6.3 6.3 6.1 6.1 6.1 5.9 5.8 5.9 6.0
7.5 7.0 8.4 9.2 9.3 8.9 8.9 8.1 8.0 7.9 7.5 7.1 6.8 7.3 7.5 7.6 7.5 7.5 7.6 7.4 7.4 7.2 6.9 7.0 6.7 5.4 5.3 5.0 5.1 5.0 4.7 4.8 4.7 5.2 5.7 5.6 5.7 5.9 6.3 6.4 6.2 6.3 6.1 6.0 6.1 5.9 5.9 6.0 6.2
7.2 7.9 8.3 9.3 9.2 9.0 9.0 8.8 8.3 8.2 8.0 7.2 6.5 7.2 7.4 7.5 7.3 7.4 7.6 7.5 7.4 7.2 7.1 6.9 6.8 6.8 6.7 6.6 6.1 5.9 6.2 5.6 5.6 5.5 5.6 5.9 6.0 6.2 6.4 6.5 6.4 6.2 6.0 6.1 6.0 6.1 6.1 6.1 6.3
7.2 8.1 8.4 9.0 8.5 8.8 8.8 8.6 8.9 8.5 8.3 7.7 6.8 7.3 7.5 7.8 7.5 7.3 7.4 7.4 7.2 7.2 7.1 7.0 6.7 6.3 6.4 6.2 6.0 6.1 6.1 5.9 6.0 6.0 5.9 6.0 6.3 6.4 6.7 6.7 6.5 6.2 6.2 6.2 6.4 6.3 6.3 6.2 6.0
7.6 8.1 8.4 8.6 9.0 9.0 8.8 8.8 8.4 8.7 8.1 7.9 7.6 7.4 7.4 8.1 7.6 7.5 7.5 7.4 7.4 7.4 7.5 7.5 6.9 6.6 6.5 6.5 6.6 6.6 6.1 5.8 5.9 6.1 6.1 6.5 6.6 6.6 6.5 6.6 6.6 6.6 6.3 6.6 6.7 6.5 6.1 5.9 5.8
7.5 8.3 8.4 8.7 8.7 8.6 9.0 8.0 8.8 8.6 8.1 8.3 7.7 7.4 7.6 7.8 8.0 7.6 7.5 7.6 7.7 7.6 7.5 7.5 7.3 7.3 7.2 7.1 7.0 7.0 6.8 6.6 6.8 6.9 6.8 6.7 6.9 6.7 6.5 6.3 6.6 6.7 6.6 6.5 6.4 6.3 6.0 5.9 5.9
7.7 8.3 8.2 8.4 8.5 8.5 8.6 8.5 8.8 8.8 7.8 8.1 7.5 7.8 7.5 8.1 8.2 7.9 7.9 7.9 8.0 7.9 7.9 7.8 7.5 7.5 7.3 7.3 7.3 7.1 7.1 6.8 6.6 6.5 6.7 6.8 6.8 6.8 6.8 6.8 6.6 6.7 6.6 6.4 6.3 6.3 6.2 6.1 6.1
8.0 7.8 8.3 8.2 8.2 7.3 8.6 8.7 8.6 9.1 8.9 8.2 7.9 8.0 7.9 7.6 8.0 8.2 7.8 8.0 7.9 8.1 7.7 7.7 7.6 7.5 7.3 7.4 7.2 7.1 7.2 7.1 7.1 6.7 6.7 6.8 6.8 6.9 6.8 6.8 6.7 6.5 6.6 6.6 6.1 6.2 6.1 6.1 6.1
8.0 8.0 7.5 7.2 6.9 6.4 8.2 8.0 8.2 9.0 8.6 8.9 8.5 8.2 8.0 7.6 7.6 7.9 8.0 7.9 7.9 8.0 8.1 7.7 7.6 7.6 7.6 7.6 7.5 7.4 7.2 6.9 7.0 6.9 6.9 6.8 6.9 6.8 6.8 6.8 6.7 6.6 6.6 6.3 5.9 5.9 6.1 5.9 5.8
7.8 7.9 7.7 7.1 6.3 6.9 8.2 7.9 8.3 8.5 8.7 8.6 8.5 8.3 8.2 7.5 7.7 7.8 8.1 8.3 8.1 7.9 7.8 7.8 7.5 7.3 7.3 7.5 7.5 7.6 7.1 7.2 6.6 6.9 6.8 7.0 7.1 6.9 7.0 6.7 6.6 6.2 6.3 6.2 6.4 6.3 6.4 6.0 5.9
8.0 7.9 8.3 8.4 8.2 7.5 7.9 8.3 8.3 8.4 8.6 8.7 8.7 8.5 8.2 8.0 7.8 7.8 7.7 7.8 8.1 8.3 8.1 7.9 7.6 7.4 7.4 7.4 7.5 7.6 6.7 7.2 7.1 7.2 7.1 6.8 7.3 7.2 7.1 6.7 6.8 6.1 6.2 6.5 6.7 6.5 6.2 6.1 5.8
8.5 8.1 8.3 8.2 7.5 7.0 7.8 8.3 8.6 8.5 8.7 8.9 8.8 8.9 8.7 8.5 8.4 8.1 7.8 7.6 7.7 8.0 8.1 7.8 7.7 7.7 7.6 7.5 7.7 7.8 7.5 7.0 6.9 7.1 7.0 6.9 7.1 7.0 6.9 6.9 6.6 6.9 6.8 6.7 6.5 6.3 6.1 5.8 5.9
8.3 8.0 8.1 8.5 8.1 6.7 6.6 8.1 8.5 8.1 8.5 8.1 8.7 8.6 8.6 8.4 8.3 8.2 8.0 7.5 7.3 7.6 7.6 7.9 8.1 8.0 7.9 7.7 7.6 7.6 7.5 6.7 6.1 6.7 7.0 7.2 7.3 7.0 6.8 6.9 7.0 6.9 6.7 6.5 6.2 6.1 5.9 5.7 5.5
8.2 8.3 8.4 8.2 7.7 8.5 8.3 7.7 8.5 8.5 8.5 8.4 8.7 8.4 8.4 8.4 8.1 8.4 8.1 7.9 7.3 7.2 7.4 8.0 7.9 7.9 7.8 7.4 7.4 6.4 5.9 5.9 6.1 5.3 6.8 7.4 7.3 7.3 7.1 6.9 6.9 6.8 6.5 6.4 6.2 5.9 5.3 5.6 5.5
Wind_Speed
4 6 1 3 3 2 7 11 5 8 4 3 4 3 8 8 5 7 8 13 14 12 16 9 28 24 20 24 27 27 27 27 27 28 28 29 30 30 31 29 29 28 28 28 26 25 24 23 21
4 3 1 3 2 3 9 14 12 5 5 9 7 5 9 6 6 3 5 12 12 6 18 33 22 26 22 24 25 26 27 28 28 28 28 29 30 30 30 29 28 28 27 27 24 23 20 19 19
2 3 2 3 4 9 7 13 5 2 4 5 6 11 4 1 5 1 3 8 7 8 16 27 31 34 24 25 25 24 26 26 28 28 27 29 31 29 29 28 27 26 26 25 23 20 18 18 19
2 4 3 1 11 17 11 9 8 6 7 8 9 11 5 5 3 3 7 9 5 3 13 17 25 30 21 22 26 25 26 26 26 28 26 28 29 29 27 28 27 25 25 24 21 19 17 18 18
1 2 2 5 11 16 4 4 6 9 6 15 6 6 4 11 11 14 9 6 5 6 14 20 23 28 32 15 24 23 24 27 26 27 25 27 30 28 27 28 27 25 24 22 20 17 16 17 17
3 3 4 8 15 6 2 7 11 21 14 8 10 6 4 9 12 11 5 7 5 9 12 17 22 23 26 24 23 22 19 23 25 25 25 25 28 26 27 27 25 24 22 20 18 17 16 17 17
6 1 6 8 15 5 3 4 9 12 12 8 4 5 1 4 6 9 5 11 7 11 11 14 19 23 22 23 25 24 20 20 23 23 23 24 26 27 26 27 24 22 21 20 18 16 16 16 17
3 3 9 8 11 4 3 4 10 13 6 6 2 7 6 3 2 1 10 8 8 8 9 13 17 21 24 25 25 26 21 22 24 24 24 25 26 26 24 25 23 22 21 19 18 17 16 14 16
3 3 7 14 13 4 2 5 5 10 8 7 6 1 6 10 4 7 9 8 6 7 8 12 16 18 21 23 32 23 22 21 24 22 27 23 19 21 18 19 21 21 19 19 18 17 15 15 12
2 3 10 14 2 5 5 7 3 3 3 3 7 6 6 9 6 2 11 9 4 4 8 10 12 17 20 17 23 19 24 17 18 18 19 19 19 19 15 19 20 21 19 17 15 13 12 8 8
9 7 10 10 3 4 5 3 12 17 5 2 12 10 6 11 8 6 6 5 4 3 8 11 11 13 15 13 14 14 12 16 17 14 14 19 20 16 14 13 13 17 16 13 12 9 6 3 10
7 9 7 10 2 2 5 5 9 21 12 9 7 11 8 12 8 7 7 7 6 6 9 12 13 11 13 14 10 11 11 11 12 19 19 18 15 13 13 12 12 14 14 13 10 7 7 11 14
6 5 9 9 8 4 17 10 8 15 13 5 4 7 16 11 10 7 7 8 7 8 8 10 13 14 14 11 9 12 6 11 18 17 19 17 16 11 14 13 14 14 13 12 9 9 11 9 9
7 8 8 7 10 1 7 6 5 10 6 6 8 6 12 13 12 10 9 10 8 7 11 14 12 14 20 11 10 7 9 13 8 14 18 16 18 13 12 11 12 15 16 14 13 12 11 8 10
12 9 8 10 7 6 12 4 5 6 5 6 10 10 13 13 12 11 11 11 11 10 12 14 17 15 12 13 13 10 11 9 0 5 9 13 16 15 13 11 11 14 18 17 16 11 10 8 7
9 7 5 13 10 5 8 5 5 10 6 8 9 15 14 14 13 13 13 12 13 13 13 11 12 13 13 14 18 14 11 11 10 13 17 12 11 10 12 7 9 16 16 12 11 7 4 4 5
5 8 12 17 11 5 5 2 8 10 12 4 8 9 12 12 14 13 12 13 12 12 14 13 11 12 13 13 13 15 16 18 21 15 7 11 14 12 12 9 10 9 11 9 8 3 3 3 3
10 6 9 7 8 6 5 5 6 7 11 14 8 12 11 15 13 15 15 14 13 10 12 13 10 15 12 7 8 9 7 7 7 7 10 17 17 17 15 11 11 13 7 5 4 4 4 3 5
16 12 7 5 2 5 10 7 12 12 9 13 12 15 14 16 13 16 15 14 15 12 14 14 12 12 9 9 8 9 8 6 2 8 15 17 18 18 16 11 8 11 6 6 6 4 5 4 3
13 6 8 6 8 2 3 14 16 8 7 13 14 15 16 15 17 17 16 16 15 15 14 16 14 14 12 10 8 5 6 7 6 10 13 18 20 20 16 11 7 11 4 6 6 6 3 3 4
6 6 7 7 1 3 4 3 6 6 2 2 2 12 17 22 19 19 19 17 16 17 16 17 17 18 15 15 8 5 3 4 6 8 6 11 19 19 16 15 11 11 8 6 6 6 7 5 3
6 10 11 7 1 4 5 4 5 11 6 17 20 18 18 21 21 21 21 19 19 18 17 19 17 18 17 14 12 13 10 11 10 9 8 8 17 17 19 17 15 12 10 6 6 5 5 5 7
9 7 4 4 5 2 5 2 7 14 12 21 20 20 20 23 23 23 23 23 21 19 18 17 18 19 20 18 16 13 14 11 9 9 9 11 11 18 18 19 15 9 9 6 7 6 6 5 3
7 3 4 4 1 4 6 5 5 4 10 17 19 19 22 22 24 24 24 22 20 18 19 19 20 20 21 20 20 18 14 11 9 8 8 7 6 8 15 15 13 11 8 7 5 4 6 6 4
7 4 1 4 2 6 1 5 8 9 8 7 17 16 20 22 23 22 23 22 21 22 22 21 22 23 23 23 21 20 14 14 14 12 9 7 7 5 10 9 7 5 8 9 8 5 4 4 4
10 7 5 6 4 6 3 4 4 5 8 9 10 18 16 19 23 24 25 24 24 25 22 24 22 20 22 20 22 18 18 11 10 12 4 6 7 9 10 10 9 10 13 9 7 3 3 6 6
4 6 7 5 2 4 4 5 5 8 8 6 8 8 13 14 21 24 25 24 24 25 27 25 25 24 21 22 15 19 19 14 11 12 10 4 6 5 8 7 9 6 7 8 6 5 6 6 6
9 4 5 3 5 5 6 7 5 12 10 8 4 4 6 9 9 14 22 23 23 24 25 27 25 26 27 21 19 16 13 11 7 6 7 5 4 5 6 6 6 7 6 7 7 7 8 7 5
4 9 4 3 4 6 3 5 3 3 9 7 5 8 8 7 7 8 7 15 22 23 24 24 24 22 20 19 16 18 13 11 6 5 5 5 8 8 7 8 8 6 7 7 7 8 9 9 7
16 12 9 5 5 4 5 5 6 4 9 10 8 8 8 9 8 6 3 4 9 23 23 21 19 20 18 17 7 8 8 3 2 6 6 8 7 6 6 7 7 8 8 8 10 10 9 9 9
Wind_Direction
310 269 141 357 44 87 264 265 240 313 109 211 172 139 98 40 34 112 167 173 200 147 109 316 147 139 133 126 124 125 122 118 118 117 116 114 114 112 111 110 109 107 104 102 102 101 100 96 91
313 307 72 287 155 311 279 257 228 235 157 184 152 31 50 80 4 61 138 183 213 194 159 165 163 139 137 129 128 127 125 123 122 121 121 118 117 116 114 113 111 108 107 106 105 103 96 84 74
300 210 73 169 214 233 247 265 280 297 162 192 105 61 57 115 159 90 53 159 173 181 156 146 150 138 141 134 129 128 122 123 124 124 122 123 120 119 116 115 112 111 110 109 106 97 85 73 65
276 349 326 211 253 261 231 270 356 357 358 28 102 86 83 319 285 320 113 151 111 213 123 137 146 130 133 131 129 127 126 127 124 125 123 124 123 123 120 117 114 112 110 107 101 92 81 75 68
163 316 242 265 263 266 326 305 35 25 39 25 25 48 29 340 5 10 111 81 84 93 106 132 133 139 131 137 127 125 127 128 126 125 126 124 127 126 124 121 118 116 112 109 103 93 84 80 69
323 141 302 282 284 298 43 20 33 22 356 57 42 87 51 350 5 0 106 124 82 93 87 103 123 123 130 135 119 112 120 121 123 125 128 128 127 128 125 121 119 117 114 108 103 93 88 78 69
208 97 252 278 290 296 31 58 70 71 334 7 276 74 349 253 3 337 89 121 99 108 107 108 112 105 99 101 109 119 108 107 110 115 123 128 126 125 125 122 120 119 115 111 104 97 90 79 65
199 140 305 287 297 276 323 94 135 127 92 267 81 156 197 82 56 125 59 91 97 113 116 107 107 110 107 106 112 110 99 101 103 104 109 116 120 120 123 122 123 121 118 115 114 110 98 84 67
300 326 275 277 300 241 283 64 13 114 118 38 9 123 89 125 155 106 92 73 87 119 128 121 119 114 115 128 124 116 106 106 107 110 111 108 107 109 113 121 122 120 120 125 126 119 115 103 80
170 172 249 264 311 12 82 105 124 137 79 137 93 86 120 142 109 121 151 137 105 108 123 126 121 127 131 138 125 133 126 127 120 121 114 111 103 105 114 119 124 124 133 137 130 128 114 81 73
253 222 260 283 87 54 88 69 40 26 33 164 167 153 153 116 105 95 73 80 104 97 114 123 120 121 118 127 115 120 130 134 127 121 116 113 107 108 112 119 129 130 143 140 139 138 135 315 106
252 256 280 280 181 80 54 83 72 55 325 13 128 145 130 114 120 123 111 103 95 96 104 113 121 118 126 137 127 134 141 128 134 127 125 117 116 133 129 142 148 147 161 156 153 165 150 113 95
278 243 271 302 331 126 89 98 150 135 222 325 171 167 115 118 130 124 110 109 104 90 109 106 117 120 110 101 119 133 138 122 133 125 128 126 133 140 150 157 169 175 174 176 171 156 118 112 107
281 307 291 307 286 266 111 121 124 224 168 169 214 153 117 134 138 132 131 121 107 104 112 105 99 121 126 116 117 97 86 89 84 120 129 145 127 173 167 175 188 192 190 200 175 164 148 151 132
316 298 298 279 268 157 120 78 120 199 191 178 199 155 131 138 144 149 149 141 143 120 123 120 122 114 111 114 115 110 99 80 148 161 137 145 162 174 189 194 207 201 201 195 172 161 157 154 150
306 314 283 266 215 161 112 237 186 163 153 210 204 153 150 156 155 149 154 150 154 138 135 128 128 138 142 142 150 148 140 170 199 216 181 177 195 215 187 187 193 199 188 167 158 145 147 168 164
257 258 262 273 201 129 106 195 261 132 164 245 199 166 148 144 150 153 153 155 157 152 146 142 137 156 152 155 164 174 183 189 195 192 172 204 210 204 207 205 221 199 164 148 153 144 155 189 183
263 265 254 282 191 121 126 181 252 141 163 203 206 170 159 155 164 159 157 153 158 154 155 150 151 159 159 161 173 183 203 208 181 209 210 216 212 212 209 212 222 172 163 170 161 167 190 184 187
257 281 320 302 103 174 194 167 222 226 159 196 203 169 168 164 166 158 161 160 163 166 162 166 161 168 161 177 177 182 195 213 195 219 227 215 209 210 204 208 200 181 173 185 180 164 195 220 157
256 307 296 294 160 40 119 203 212 199 197 158 187 169 172 152 160 163 167 171 170 170 169 169 173 172 178 179 185 192 200 218 228 221 223 212 203 204 200 200 186 186 186 191 188 170 165 197 176
253 243 259 243 268 285 272 317 197 209 79 353 223 197 174 161 164 164 170 175 171 176 176 175 180 176 184 189 191 185 194 228 221 224 220 207 198 202 201 202 195 195 192 195 196 176 170 189 225
269 256 247 258 203 221 141 258 212 173 171 185 223 193 175 170 169 170 171 180 181 183 180 182 182 181 192 196 194 200 205 210 219 215 215 210 201 196 199 203 197 192 200 190 196 185 174 149 209
249 272 334 279 291 315 291 111 271 179 191 206 219 179 182 176 174 178 180 182 185 183 188 190 185 187 196 203 203 203 211 214 207 211 211 216 208 199 198 201 199 189 198 196 184 183 188 192 150
260 272 247 320 14 309 244 190 253 214 199 185 195 177 182 179 182 182 183 181 186 184 190 192 193 195 198 202 207 210 204 202 202 204 205 199 192 196 199 194 191 191 184 186 182 199 191 197 158
212 253 323 331 316 237 331 298 254 215 200 185 175 194 186 183 180 182 182 184 187 190 188 193 196 197 200 204 206 211 208 206 202 204 197 174 186 190 207 194 193 179 183 186 172 179 179 152 148
222 171 160 213 218 255 295 252 271 222 203 199 181 185 194 180 182 183 186 187 189 191 188 192 198 199 202 203 206 209 213 217 211 206 185 193 193 197 200 205 197 196 175 164 157 131 120 141 149
235 201 200 236 296 16 258 275 314 270 242 257 200 160 190 185 184 187 188 189 191 193 196 192 194 201 203 205 195 208 214 205 200 200 200 179 182 193 192 203 185 177 166 155 148 139 132 131 127
195 163 214 233 195 198 262 250 241 193 211 230 170 193 190 181 191 189 188 191 194 197 199 198 197 198 202 200 205 209 204 201 178 167 162 179 146 136 132 141 138 159 157 134 132 136 140 143 129
199 220 222 165 164 187 219 272 204 64 103 245 200 157 144 155 146 149 191 197 199 198 199 199 200 200 204 206 205 202 181 167 145 186 176 164 149 148 159 163 152 147 138 137 133 134 137 135 128
199 198 189 162 246 246 171 254 163 157 156 240 183 179 181 163 169 164 139 136 177 203 201 198 195 193 199 206 159 133 123 116 201 231 177 160 153 155 161 164 149 136 136 139 142 146 147 146 150